Location: Baix
(44.7118°N, 4.7648°E)
Time: 17:05:10
(UTC+00:00)

Cosmos 2333 Rocket - Pass Details

Date: 07 August 2020
Orbit: 837 x 864 km, 70.8° (Epoch: 22 September)

Event Time Altitude Azimuth Distance (km) Brightness Sun altitude
Rises 00:41:07 0° 329° (NNW) 3,454 6.0 -27.7°
Reaches altitude 10° 00:43:40 10° 324° (NW) 2,512 5.1 -27.6°
Enters shadow 00:48:16 44° 279° (W) 1,182 2.8 -27.4°
